Elephant Butte, NM

2:14 PM MST on February 20, 2017 (GMT -0700)
Truth Or Consequences Municipal

Weather History for KTCS - January, 2013

Change the Weather History Date:

Sunday, January 20, 2013

  Actual Average Record
Temperature  
Mean Temperature 43 °F -  
Max Temperature 59 °F 55 °F 73 °F (1997)
Min Temperature 26 °F 29 °F 17 °F (2008)
Degree Days  
Heating Degree Days 22    
Month to date heating degree days 615  
Since 1 July heating degree days 1733  
Moisture  
Dew Point 10 °F    
Average Humidity 31    
Maximum Humidity 46    
Minimum Humidity 15    
Precipitation  
Precipitation 0.00 in - 0.02 in (2007)
Month to date precipitation T  
Year to date precipitation T  
Sea Level Pressure  
Sea Level Pressure 30.19 in    
Wind  
Wind Speed 5 mph (NNW)    
Max Wind Speed 10 mph    
Max Gust Speed 13 mph    
Visibility 10 miles    
Events      
T = Trace of Precipitation, MM = Missing Value Source: NWS Daily Summary

Daily Weather History Graph

Daily Weather History Graph

Search for Another Location

Airport or City:

Trip Planner

Search our weather history database for the weather conditions in past years. The results will help you decide how hot, cold, wet, or windy it might be!

Date:

Astronomy

Jan. 20, 2013 Rise Set
Actual Time 7:11 AM MST 5:29 PM MST
Civil Twilight 6:44 AM MST 5:56 PM MST
Nautical Twilight 6:14 AM MST 6:26 PM MST
Astronomical Twilight 5:44 AM MST 6:56 PM MST
Moon 12:31 PM MST 1:47 AM MST
Length of Visible Light 11h 11m
Length of Day
10h 18m
Waxing Gibbous, 67% of the Moon is Illuminated
Jan 20
Waxing Gibbous
Jan 26
Full
Feb 3
Last Quarter
Feb 10
New
Feb 17
First Quarter

Hourly Weather History & Observations

Time (MST) Temp. Windchill Dew Point Humidity Pressure Visibility Wind Dir Wind Speed Gust Speed Precip Events Conditions
12:53 AM 36.0 °F 29.6 °F 12.0 °F 37% 30.23 in 10.0 mi NW 8.1 mph - N/A   Clear
1:53 AM 30.9 °F 25.2 °F 10.0 °F 42% 30.24 in 10.0 mi NW 5.8 mph - N/A   Clear
2:53 AM 28.9 °F 21.9 °F 9.0 °F 43% 30.25 in 10.0 mi WNW 6.9 mph - N/A   Clear
3:53 AM 30.9 °F 25.2 °F 9.0 °F 40% 30.24 in 10.0 mi NW 5.8 mph - N/A   Clear
4:53 AM 28.9 °F 22.8 °F 9.0 °F 43% 30.23 in 10.0 mi NNW 5.8 mph - N/A   Clear
5:53 AM 28.9 °F 21.9 °F 9.0 °F 43% 30.26 in 10.0 mi North 6.9 mph - N/A   Clear
6:53 AM 27.0 °F 21.6 °F 9.0 °F 47% 30.27 in 10.0 mi North 4.6 mph - N/A   Clear
7:53 AM 28.0 °F 22.8 °F 10.0 °F 47% 30.28 in 10.0 mi NNW 4.6 mph - N/A   Clear
8:53 AM 37.0 °F 33.3 °F 10.9 °F 34% 30.27 in 10.0 mi North 4.6 mph - N/A   Clear
9:53 AM 41.0 °F 35.8 °F 10.0 °F 28% 30.27 in 10.0 mi NE 8.1 mph - N/A   Clear
10:53 AM 45.0 °F 43.5 °F 10.9 °F 25% 30.25 in 10.0 mi NNE 3.5 mph - N/A   Clear
11:53 AM 48.0 °F - 12.9 °F 24% 30.19 in 10.0 mi Calm Calm - N/A   Clear
12:53 PM 52.0 °F - 12.9 °F 21% 30.13 in 10.0 mi ESE 3.5 mph - N/A   Clear
1:53 PM 55.0 °F - 12.9 °F 19% 30.11 in 10.0 mi Calm Calm - N/A   Clear
2:53 PM 55.9 °F - 12.9 °F 18% 30.10 in 10.0 mi Variable 3.5 mph - N/A   Clear
3:53 PM 57.9 °F - 10.9 °F 16% 30.08 in 10.0 mi Variable 3.5 mph - N/A   Clear
4:53 PM 57.0 °F - 12.0 °F 17% 30.09 in 10.0 mi NNE 4.6 mph - N/A   Clear
5:53 PM 48.0 °F - 10.0 °F 22% 30.13 in 10.0 mi North 5.8 mph - N/A   Clear
6:53 PM 44.1 °F 40.8 °F 10.0 °F 25% 30.16 in 10.0 mi North 5.8 mph - N/A   Clear
7:53 PM 43.0 °F 38.8 °F 9.0 °F 25% 30.17 in 10.0 mi North 6.9 mph - N/A   Clear
8:53 PM 41.0 °F 35.8 °F 8.1 °F 26% 30.16 in 10.0 mi NW 8.1 mph - N/A   Clear
9:53 PM 39.9 °F 35.8 °F 8.1 °F 27% 30.16 in 10.0 mi NNW 5.8 mph - N/A   Clear
10:53 PM 39.0 °F 34.0 °F 8.1 °F 28% 30.14 in 10.0 mi NNW 6.9 mph - N/A   Clear
11:53 PM 33.1 °F 26.9 °F 7.0 °F 34% 30.16 in 10.0 mi WNW 6.9 mph - N/A   Clear